ECMWFNIL_prec_cthk_096.txt.gz
RH
48 46 44 41 38 36 34 34 33 33 34 35 36 36 37 37 37 37 37 36 35 34 33 32 31 30 29 28 27 27 27 26 26 25 24 24 24 25 25 26 26 26
49 47 45 43 40 38 36 35 35 36 36 36 37 37 37 37 37 36 36 35 34 33 32 30 30 28 28 27 26 26 25 24 23 22 21 21 21 20 19 20 21 23
50 48 46 45 43 41 39 38 37 37 37 37 37 37 37 36 36 35 33 32 32 31 31 29 29 28 28 28 27 26 25 23 21 19 18 17 16 16 15 16 18 21
50 50 48 47 46 44 42 41 39 38 37 37 37 36 35 34 34 32 32 32 32 32 31 30 30 29 29 28 25 24 21 19 18 16 15 15 14 14 14 14 16 17
51 52 50 48 46 45 44 42 41 39 37 36 36 35 33 33 32 32 32 33 33 33 32 30 29 28 26 24 21 19 17 16 15 14 14 14 14 14 14 14 15 15
49 51 50 48 46 45 44 43 41 38 36 36 34 34 33 33 33 34 34 35 35 33 31 29 27 25 22 20 17 16 15 14 14 13 14 13 13 13 13 13 13 14
46 45 44 45 45 44 44 42 40 38 36 35 34 34 34 34 35 36 36 36 33 31 28 26 25 23 19 17 16 15 13 12 12 11 11 10 11 11 10 10 10 13
46 42 41 42 42 43 43 41 39 38 36 36 35 35 35 36 37 37 36 33 30 28 27 25 23 20 17 15 14 13 11 10 10 9 10 10 10 10 11 12 12 15
48 45 42 41 42 43 43 42 40 38 37 36 36 36 37 38 38 36 33 31 29 27 26 24 21 18 15 13 12 10 10 10 10 11 11 12 12 12 13 15 18 22
48 47 43 42 44 45 44 42 40 39 38 38 38 39 39 38 36 34 31 29 28 27 25 22 18 15 13 12 11 11 11 12 12 12 13 14 14 15 16 18 22 27
48 48 47 46 47 47 44 43 41 40 40 40 40 40 38 37 34 32 30 29 28 26 22 18 15 13 12 12 12 13 13 13 13 14 15 16 17 19 21 21 24 27
47 49 51 51 50 47 45 44 43 42 42 41 41 39 37 35 33 31 31 29 27 23 17 15 13 12 12 13 13 14 14 14 15 16 17 19 20 22 24 24 25 26
48 50 52 52 50 48 47 46 44 43 42 41 40 38 36 35 33 32 30 27 22 17 14 14 13 13 14 14 14 14 13 14 16 17 17 20 22 24 27 27 27 26
52 53 52 52 50 49 48 46 44 43 42 41 39 38 37 35 34 31 27 22 18 15 15 15 14 14 14 13 13 13 12 14 17 16 16 20 23 26 27 26 25 26
56 56 54 53 51 49 46 44 43 43 41 40 39 38 37 35 32 27 21 17 16 16 16 15 15 15 14 13 12 11 10 12 15 16 19 23 25 26 26 25 25 25
57 57 56 53 50 47 45 44 44 42 41 41 40 38 35 31 25 21 18 17 17 17 16 16 15 14 13 12 11 10 9 9 13 18 24 26 25 25 26 26 27 26
57 56 55 51 49 47 45 45 43 42 42 40 38 34 29 24 20 18 18 18 18 18 17 16 14 12 11 10 9 9 8 8 13 21 25 26 25 25 26 26 26 26
60 59 56 52 50 48 46 44 43 42 40 37 32 27 23 20 19 19 20 19 18 18 16 14 12 10 10 8 8 8 7 9 17 24 25 26 25 25 25 26 26 26
64 63 56 50 48 46 44 43 40 38 35 30 26 23 21 21 21 20 20 19 17 16 13 11 9 8 8 7 8 8 7 10 21 26 26 25 25 24 25 26 27 27
58 56 51 46 45 43 41 38 35 32 29 25 23 22 21 21 20 20 19 17 15 13 11 9 7 7 7 7 8 8 7 14 24 27 26 25 24 24 23 24 26 27
51 49 47 43 40 38 35 33 31 28 25 23 21 21 21 21 21 20 17 14 12 9 9 8 7 7 8 7 9 9 10 18 26 26 25 25 24 23 22 22 24 26
48 46 43 39 37 35 33 30 27 25 22 21 20 21 22 22 20 17 14 12 10 8 9 10 9 9 10 10 10 11 13 21 26 25 25 25 23 22 21 21 23 25
45 42 39 38 37 35 30 26 23 21 20 21 22 23 23 20 17 14 11 10 8 7 10 13 12 11 12 12 12 12 15 22 26 25 25 24 22 22 21 21 23 24
42 40 39 38 36 32 27 23 21 21 22 24 25 23 21 17 14 12 10 9 8 8 10 14 15 14 12 14 15 14 16 23 27 25 25 23 21 21 21 22 24 24
42 40 38 37 33 28 24 22 23 24 26 29 28 25 20 16 13 11 10 9 9 9 10 13 15 15 14 14 16 16 17 24 27 25 25 25 22 21 22 23 26 27
40 37 35 33 28 24 23 26 28 28 28 28 27 23 19 14 12 12 12 11 11 11 12 13 14 16 16 16 18 19 18 22 26 24 25 26 23 21 23 24 26 28

ECMWFNIL_prec_cthk_102.txt.gz
RH
56 55 52 51 50 51 51 52 52 50 45 40 38 36 35 34 33 31 30 30 29 29 28 28 27 26 26 27 28 30 29 27 28 27 23 21 21 22 24 26 27 30
59 57 56 55 54 54 55 55 54 49 43 39 37 35 34 32 31 29 28 28 27 27 27 27 27 26 27 29 29 30 29 27 28 28 27 23 21 23 24 29 32 29
63 63 62 61 60 59 58 56 51 45 41 37 34 32 30 28 26 25 24 24 25 26 26 26 27 27 29 30 30 29 28 28 31 34 35 29 25 25 24 28 34 28
61 62 62 62 62 61 56 50 46 42 38 35 31 28 27 25 24 24 24 24 25 26 27 27 28 29 30 30 28 28 28 30 33 36 37 33 29 28 25 28 33 29
58 58 59 60 59 54 46 41 39 37 35 34 32 29 27 26 26 26 25 25 26 27 28 28 29 30 29 28 28 28 28 30 33 34 35 37 36 29 27 30 32 31
54 53 53 52 49 43 38 35 34 33 33 33 32 31 31 30 30 30 29 29 29 29 29 29 30 29 29 29 29 29 29 30 33 33 34 37 37 30 29 31 31 31
50 48 45 40 37 35 34 34 33 33 33 33 32 33 33 33 33 33 32 31 30 30 30 30 29 29 29 30 30 30 30 31 32 34 35 35 35 33 31 32 31 31
47 42 37 32 31 32 34 34 34 34 33 32 33 35 36 35 35 36 35 32 31 30 30 30 29 30 31 31 31 34 35 36 37 38 38 36 34 32 32 32 32 31
41 35 32 31 31 33 35 35 34 34 34 33 33 35 36 35 35 35 34 31 30 29 29 30 31 31 32 31 31 35 39 41 41 40 37 34 33 32 32 32 31 31
35 32 31 32 34 35 36 36 35 35 35 34 33 34 35 35 33 31 30 29 29 29 30 32 33 32 33 32 30 32 37 39 39 38 34 32 33 32 32 32 30 30
32 31 32 33 34 36 37 37 37 37 35 34 33 33 34 35 33 29 28 28 28 30 32 33 34 33 33 33 30 30 36 40 37 35 33 32 33 33 32 31 29 28
32 32 33 34 35 37 37 37 38 37 35 34 33 31 30 29 29 28 28 30 31 33 35 34 34 35 34 32 28 25 32 37 33 33 34 33 32 32 29 26 24 24
33 33 34 35 36 37 37 38 38 37 36 37 37 36 33 30 30 31 32 34 35 35 36 36 36 35 31 27 23 20 23 30 33 34 34 32 30 29 26 22 20 21
34 34 35 36 36 36 37 37 37 36 35 35 36 37 38 39 39 37 36 36 36 36 37 37 35 31 25 21 18 16 18 25 33 36 32 29 28 26 24 23 21 20
36 37 38 37 37 37 38 38 36 34 32 31 32 34 39 45 46 41 37 37 38 38 37 33 28 23 19 16 15 16 18 23 30 33 29 26 25 25 24 23 22 22
38 39 39 39 38 37 37 36 32 29 28 30 32 34 36 41 44 40 38 37 36 34 30 25 21 17 16 14 15 18 19 22 26 28 27 25 23 23 22 21 22 21
41 43 42 40 38 37 34 31 28 28 30 31 33 35 34 37 42 42 37 33 30 26 22 19 16 15 15 16 17 18 18 19 23 25 26 24 22 22 22 21 22 20
45 45 42 40 40 37 32 31 31 33 33 33 34 35 33 35 40 39 33 27 24 21 17 15 15 15 17 17 16 15 16 19 23 25 25 24 22 22 22 22 22 19
47 44 43 44 41 35 33 36 38 37 36 35 35 34 31 30 32 33 29 24 20 17 15 14 16 16 17 15 13 12 14 19 24 25 25 24 22 21 21 22 22 20
49 47 45 42 38 35 39 43 41 38 37 35 33 30 29 28 27 28 28 23 17 15 15 16 17 16 15 13 11 11 13 18 24 25 24 24 22 20 21 22 22 21
50 46 42 41 43 47 50 49 44 40 37 34 31 29 28 26 24 23 24 23 19 17 17 17 16 14 13 10 10 11 11 13 20 24 24 24 22 20 20 22 22 21
47 44 45 50 55 55 51 46 43 39 36 33 31 29 26 24 22 19 18 22 23 21 18 17 15 11 10 9 9 10 9 9 14 20 22 23 23 20 20 22 22 21
49 50 52 54 54 49 41 39 39 39 38 35 33 31 28 23 20 16 16 20 23 21 17 15 12 10 9 9 8 8 8 7 9 14 19 23 24 22 21 22 22 21
53 53 51 49 48 42 38 40 42 42 40 38 36 35 32 27 21 18 18 19 19 18 15 12 10 9 9 8 8 8 8 7 8 11 15 21 23 23 23 23 22 22
53 51 48 46 44 40 38 41 42 41 40 39 36 34 32 30 28 25 23 21 19 17 14 11 9 9 9 8 8 8 8 8 8 10 13 16 20 23 25 23 22 23
52 48 45 44 40 38 40 41 42 43 43 39 36 33 31 30 31 31 30 27 23 19 16 14 12 9 9 9 8 8 8 8 9 9 11 12 15 21 25 25 24 23

ECMWFNIL_prec_cthk_105.txt.gz
RH
53 51 51 51 51 50 50 48 47 43 36 34 34 32 32 31 29 27 25 23 22 21 20 20 21 22 22 23 24 25 26 28 29 28 26 26 27 28 30 28 22 20
54 53 53 52 52 52 51 50 47 42 36 35 34 33 32 31 29 27 25 23 22 22 22 22 23 24 24 25 26 27 29 31 31 29 27 27 27 28 33 32 26 21
56 56 56 55 54 54 51 48 44 39 36 34 33 31 31 29 27 26 25 25 25 24 24 25 25 25 26 27 27 29 31 32 32 32 29 27 27 28 36 37 29 22
56 55 54 53 52 50 47 43 40 36 33 32 31 30 29 28 28 27 27 27 27 26 26 26 27 27 27 27 28 29 32 32 33 34 30 27 27 27 33 35 28 21
53 51 48 46 44 43 40 37 34 32 31 30 30 30 29 29 29 28 28 28 27 27 27 27 27 27 27 28 28 28 31 33 34 34 32 30 29 29 31 30 25 21
50 47 44 41 37 35 33 32 31 31 31 31 30 30 30 29 29 29 29 28 28 28 28 27 27 26 26 27 28 30 32 34 35 35 36 34 32 34 34 27 23 22
49 46 44 40 35 32 30 29 30 30 30 30 30 31 31 30 30 29 28 27 27 28 27 26 25 25 26 28 30 34 36 36 39 41 42 38 33 33 31 24 20 20
48 45 43 39 34 31 28 27 28 29 29 30 31 32 32 31 30 28 27 26 26 25 25 25 26 27 29 31 34 38 39 41 44 45 45 41 33 28 25 20 19 18
47 44 40 36 32 30 28 28 28 28 29 31 32 33 33 30 28 26 25 24 24 24 25 28 29 31 33 34 35 37 41 45 45 42 40 38 31 25 21 18 17 17
46 42 37 33 31 29 29 28 28 29 30 32 33 33 32 29 27 25 24 24 25 27 30 31 32 33 34 35 34 35 41 47 46 39 35 33 28 24 20 17 17 16
43 39 35 32 31 30 29 28 29 31 32 34 34 32 30 27 26 25 25 26 27 29 31 32 32 32 34 35 34 33 37 44 44 36 31 30 26 22 21 19 17 17
42 38 35 33 32 31 30 30 31 32 33 34 33 31 28 26 25 25 25 27 29 30 31 32 33 34 34 33 32 31 33 37 38 32 28 29 27 23 24 22 18 18
41 39 36 35 34 32 32 33 34 34 34 34 32 29 27 25 24 25 27 29 29 29 30 34 36 35 31 30 29 29 28 30 33 30 27 29 29 26 26 23 19 20
43 41 38 36 35 34 34 35 34 34 34 33 30 27 25 24 26 28 30 31 31 30 31 33 33 30 27 26 26 24 23 25 29 31 29 28 28 26 24 22 20 20
45 43 40 38 36 36 36 35 34 34 35 33 28 25 25 27 30 31 31 30 30 30 30 29 27 25 23 22 21 20 20 22 27 30 29 27 26 25 23 21 20 19
46 44 42 39 38 37 36 34 34 34 34 31 26 25 28 30 30 28 27 27 27 27 27 25 23 21 19 18 17 17 18 20 23 26 25 23 24 24 22 21 21 20
46 44 42 40 38 36 34 33 33 32 30 28 26 26 28 28 27 25 25 25 25 25 24 22 20 18 16 15 16 17 19 20 23 25 24 22 21 22 23 22 21 21
46 44 41 39 37 35 34 33 32 28 26 26 26 26 27 27 26 25 25 25 25 24 22 20 17 16 14 14 15 16 20 23 24 25 25 23 20 20 22 22 21 22
45 43 41 39 38 36 34 32 29 27 27 28 28 28 28 28 26 25 25 25 24 23 20 17 15 14 13 14 15 15 17 20 21 22 24 24 20 18 20 22 22 22
45 43 42 40 38 36 34 31 29 28 30 30 30 29 28 27 26 26 26 25 23 21 18 15 14 14 14 14 14 13 11 13 15 17 21 23 20 18 20 22 22 21
45 44 42 39 38 37 35 33 33 33 33 32 30 28 27 27 27 27 26 24 22 19 15 14 14 14 15 14 12 10 9 9 10 12 16 20 19 18 20 22 22 21
46 44 42 40 39 38 37 37 37 35 32 29 28 28 28 28 27 27 25 22 19 16 14 14 14 14 14 12 10 9 8 7 7 9 13 17 18 18 19 21 22 21
47 45 43 41 40 39 40 38 35 31 28 28 29 28 28 28 27 26 24 20 17 16 14 14 15 14 13 10 9 8 7 6 6 8 11 14 17 19 19 21 23 21
48 46 43 42 42 41 39 34 28 27 28 29 30 29 28 28 27 24 22 19 17 15 15 16 16 14 11 9 8 7 6 6 6 7 8 11 14 17 17 19 22 20
50 47 44 44 43 40 35 29 25 27 30 31 31 31 30 29 27 24 21 19 17 17 17 17 15 12 10 9 8 7 6 6 6 6 7 8 11 13 14 16 18 18
51 49 48 46 42 36 31 27 27 30 34 35 35 34 32 30 28 26 23 21 21 21 21 19 16 11 10 8 7 7 7 7 7 7 8 8 10 11 13 15 17 17

ECMWFNIL_prec_cthk_111.txt.gz
RH
74 69 64 58 55 52 53 56 58 55 51 48 44 41 39 37 35 34 33 32 31 29 28 28 28 28 27 27 26 25 24 22 21 20 20 21 22 23 24 26 27 27
68 65 61 58 57 59 61 62 60 55 48 45 42 40 39 37 36 35 33 32 30 29 29 29 28 28 28 27 26 25 23 21 19 20 21 21 23 24 25 28 29 28
66 66 65 65 66 66 64 61 59 55 49 44 42 40 39 37 35 33 32 30 30 29 29 29 29 29 28 26 25 23 22 20 19 21 22 22 24 26 28 29 28 25
69 70 70 70 68 66 63 60 57 55 49 43 39 38 36 35 33 31 30 30 30 29 29 29 30 29 27 25 24 22 20 20 21 23 23 24 26 28 27 26 23 19
72 72 70 69 68 64 61 57 54 52 47 41 37 36 34 33 31 30 29 29 29 30 30 30 30 28 26 24 21 20 20 22 25 25 24 25 26 25 23 21 18 16
71 70 69 68 64 60 57 54 52 50 45 38 35 35 33 31 30 28 28 29 29 29 30 30 29 26 23 21 20 21 24 26 28 27 26 24 23 21 20 18 15 13
69 68 67 63 59 57 55 54 53 49 42 37 35 34 31 29 28 28 28 29 29 30 30 29 27 24 22 22 23 25 27 28 29 28 25 22 21 19 17 14 12 11
67 65 63 61 59 58 56 55 53 48 41 37 36 33 31 29 28 28 29 29 30 29 29 27 25 23 23 24 27 29 30 29 27 25 22 20 19 16 14 12 11 11
65 63 61 60 60 59 57 55 52 46 41 38 36 34 32 30 29 29 29 29 30 29 27 26 24 24 25 28 30 30 29 27 24 22 20 18 16 13 12 12 11 12
64 63 62 62 61 60 58 56 50 45 41 38 36 34 34 32 30 29 29 29 29 28 26 24 23 23 25 28 28 27 26 23 21 20 18 16 14 13 13 13 13 13
67 65 64 61 60 60 59 54 48 44 41 38 37 35 35 34 31 29 30 29 28 26 24 22 21 21 23 24 24 24 23 21 19 18 17 16 15 15 16 16 16 14
69 65 62 58 57 58 56 51 47 45 43 39 38 37 37 35 32 30 30 28 27 25 22 21 20 20 22 22 22 23 22 20 18 16 16 17 17 17 18 19 19 16
68 65 62 57 55 55 52 48 47 47 44 40 39 39 38 36 33 31 30 27 25 23 22 21 20 21 22 23 22 22 21 19 17 15 16 18 19 20 20 21 20 18
68 67 64 59 55 53 50 48 48 47 44 41 40 39 38 36 34 31 29 27 25 23 23 22 21 22 23 23 22 21 20 17 16 16 17 18 21 23 22 21 20 17
71 70 66 62 57 53 51 49 50 48 44 42 41 40 39 37 34 31 28 25 24 24 24 23 23 23 23 23 21 19 18 16 15 16 17 18 22 25 24 22 21 17
73 70 66 62 58 54 52 51 51 48 43 42 41 40 40 37 34 30 26 25 25 25 25 23 23 24 24 23 20 18 17 16 15 16 17 18 22 25 25 24 21 16
74 70 64 61 59 56 52 52 51 46 43 42 42 42 40 37 32 28 25 25 26 27 25 24 24 25 24 22 19 18 17 17 17 18 19 20 21 22 23 22 18 14
74 69 63 61 60 57 54 52 50 45 42 43 43 42 39 35 30 26 25 27 28 27 25 24 25 25 23 21 19 17 17 17 17 18 20 20 20 19 20 19 14 12
72 66 63 63 61 57 54 52 49 45 44 44 44 42 38 32 28 26 27 30 30 27 25 25 25 25 22 20 18 17 17 17 17 18 20 20 20 18 17 16 13 12
70 65 62 63 61 56 54 52 48 45 45 46 45 41 35 30 27 26 29 31 29 27 26 26 26 24 22 19 18 17 18 18 18 18 19 19 19 17 15 14 14 13
68 64 63 63 60 57 55 51 46 45 47 48 45 39 33 30 28 29 32 31 29 28 27 27 26 24 21 19 18 18 18 18 19 18 18 17 17 15 14 14 13 13
67 64 63 61 58 58 56 51 46 47 50 50 44 37 32 30 30 32 32 30 29 29 28 27 26 23 21 20 19 19 19 19 19 18 17 15 14 14 14 13 12 12
66 62 60 57 57 58 57 51 49 51 52 48 42 35 31 31 32 32 31 30 30 30 28 27 25 23 21 21 20 20 20 20 19 18 16 14 13 12 12 12 12 12
63 58 55 54 57 60 58 53 52 53 50 45 39 34 33 33 32 31 31 31 31 30 29 27 25 23 22 22 21 21 21 20 19 16 14 12 11 11 11 11 12 12
60 55 54 56 59 62 59 55 53 51 46 42 38 36 35 34 31 30 32 32 32 31 30 27 25 24 23 23 23 22 22 21 18 15 12 10 10 9 10 11 11 11
59 57 58 59 62 62 59 55 52 48 43 40 39 38 37 33 30 31 33 33 33 32 30 27 26 25 25 24 24 23 23 21 17 13 11 9 9 9 10 11 11 12

ECMWFNIL_prec_cthk_114.txt.gz
RH
85 84 83 83 79 73 68 63 57 52 46 45 48 48 45 42 40 37 35 35 34 33 31 30 29 28 28 27 27 27 26 25 23 22 21 20 21 21 21 21 20 20
84 83 83 80 73 66 63 57 53 50 47 48 49 48 45 41 39 36 35 35 33 32 31 30 30 28 28 28 28 27 26 24 22 21 20 21 22 22 21 21 20 19
84 82 80 74 66 62 59 56 55 55 55 53 50 47 43 39 36 34 34 33 32 31 31 31 30 29 29 29 29 28 25 23 22 21 21 22 22 22 21 21 19 17
80 78 73 69 66 64 63 62 62 62 61 57 49 43 38 35 33 33 33 32 32 31 31 31 31 30 30 30 28 26 24 23 22 21 22 23 23 22 20 18 17 15
77 74 71 70 70 69 68 67 66 64 62 56 45 37 34 32 32 32 33 33 32 31 31 31 31 31 30 29 27 25 23 22 22 23 24 23 22 20 18 17 15 14
76 74 74 75 74 72 71 69 66 62 58 52 43 36 34 33 33 34 34 34 32 31 32 32 32 31 29 28 26 24 22 21 22 23 23 21 19 18 16 16 14 12
76 77 77 76 73 72 71 68 63 58 55 50 42 37 35 34 34 35 35 34 33 32 33 33 32 30 28 26 24 23 21 21 22 22 20 18 18 17 16 14 12 11
78 79 77 73 72 72 70 65 61 57 54 49 42 38 37 36 35 35 35 35 35 34 33 33 32 29 27 26 24 22 21 20 21 20 19 18 17 16 14 12 11 12
79 77 73 72 71 70 67 64 61 59 54 47 41 39 38 36 35 35 35 36 36 35 34 33 30 28 26 25 23 22 21 20 20 20 19 18 16 14 13 12 12 12
77 74 72 71 70 68 66 64 62 59 53 45 41 41 39 37 35 35 35 36 37 36 34 32 30 27 25 24 23 23 22 20 20 20 19 18 16 13 12 12 12 13
75 73 71 71 70 68 65 63 62 58 51 43 42 42 40 37 36 35 36 37 37 36 34 31 28 25 24 24 24 24 22 20 20 21 20 18 16 14 13 13 13 13
73 71 70 70 69 66 63 62 61 56 48 43 43 44 41 38 36 36 37 38 37 35 33 30 27 25 24 25 25 24 21 20 22 21 20 18 16 15 15 14 14 13
70 69 69 69 67 65 64 62 59 53 47 45 45 45 42 39 37 37 38 38 37 34 31 29 27 25 26 26 25 23 22 22 22 20 18 18 18 17 16 16 14 13
69 68 68 69 68 66 64 62 57 51 47 47 47 46 43 40 38 39 38 37 35 33 30 29 27 27 27 26 24 23 22 22 21 19 18 18 19 19 18 16 15 13
70 69 68 69 68 66 64 60 56 51 48 48 48 46 43 40 40 40 38 37 34 31 30 29 28 28 28 26 24 23 23 22 20 19 18 19 20 19 18 17 15 13
72 70 69 69 67 65 62 59 55 52 50 47 47 47 44 41 41 40 38 36 33 30 30 29 29 29 28 26 25 24 23 22 20 20 19 19 19 19 19 17 15 13
75 71 69 68 66 63 61 57 55 54 51 48 48 47 43 41 42 40 37 35 32 30 30 30 30 29 27 26 25 24 23 22 21 21 20 20 20 19 19 17 15 12
73 70 67 66 65 63 60 57 56 55 52 50 49 47 43 42 42 39 37 34 31 30 31 31 30 28 27 27 26 24 23 22 21 22 21 21 21 20 19 17 15 11
70 68 67 66 65 63 60 58 56 56 54 52 50 46 43 41 41 39 36 34 31 31 32 32 30 28 28 27 26 23 22 21 21 22 21 21 21 20 19 17 14 11
67 68 68 67 64 62 60 58 57 57 56 54 51 47 43 42 41 39 36 33 31 32 33 31 29 29 28 27 25 23 22 21 21 22 22 22 21 20 19 16 13 11
68 70 71 69 63 60 59 57 57 58 57 56 53 48 44 43 42 39 36 32 32 34 33 31 29 29 29 27 25 23 21 21 22 22 22 22 21 20 18 15 12 11
70 72 74 71 64 60 59 58 58 60 60 58 53 48 45 44 42 39 35 32 33 34 32 30 30 30 28 27 25 23 22 22 22 22 23 23 22 20 18 15 12 11
73 75 76 73 66 62 60 59 61 63 61 58 54 49 46 45 41 37 33 33 34 33 31 31 31 30 29 28 25 24 23 23 23 23 23 23 22 19 17 14 12 10
75 77 77 72 67 63 60 60 63 63 59 57 55 51 47 45 41 35 33 34 34 32 31 32 32 30 29 28 26 25 24 24 24 24 23 23 21 18 15 13 11 10
79 80 79 74 70 66 65 66 65 60 56 58 58 53 48 44 39 34 33 35 34 32 32 32 32 31 30 28 27 26 25 25 25 25 24 22 20 17 14 12 11 10
79 81 80 78 75 71 69 67 62 56 58 61 60 55 48 42 36 34 35 36 34 33 33 33 32 31 29 28 27 27 27 26 26 26 25 22 19 16 14 12 11 11